KLM4E EHAM-SAEZ

Flight info

Callsign KLM4E
Flight time N/A
Altitude 32000
Route IDRID L980 LAM L179 UGBET Q60 OKSAW DCT FELCA DCT FADZU DCT BANBA DCT LIMRI/M084F320 DCT 50N020W 45N030W 3930N03500W/M084F340 33N040W 24N050W DCT HIGNZ/N0492F360 DCT 15N055W DCT PIPUV DCT USABO UL322 BUVIP DCT KUMOS UL322 MNS/N0488F370 UZ6 UTPAM UZ87 ETAXA DCT ESDAG/N0485F380 DCT CIA DCT AKRIL/N0481F390 UZ52 XOKUD UZ63 GRD/N0484F380 UM544 PADOT/N0479F400 UM544 VAS UP526 GEMSU/N0476F390 UP526 DAYMA/N0475F400 UL324 KUKEN KUKEN7B
Aircraft B772/H-SDE2E3FGHIJ5LORVWXY/LB1D1

Departure

Time 2026-05-04 05:00
Airport Amsterdam Airport Schiphol (EHAM)

Arrival

Time N/A
Airport Ezeiza International Airport - Ministro Pistarini (SAEZ)
Time Latitude Longitude Altitude Speed Heading
2026-05-04 03:49 52.31363 4.76173 3 ft 0 kts 177°
2026-05-04 04:51 52.31373 4.76172 3 ft 4 kts 179°
2026-05-04 04:51 52.31400 4.76173 5 ft 4 kts 181°
2026-05-04 04:51 52.31424 4.76172 5 ft 4 kts 173°
2026-05-04 04:52 52.31445 4.76163 4 ft 4 kts 136°
2026-05-04 04:52 52.31455 4.76137 5 ft 4 kts 90°
2026-05-04 04:52 52.31452 4.76094 4 ft 4 kts 81°
2026-05-04 04:52 52.31450 4.76069 6 ft 0 kts 86°
2026-05-04 04:55 52.31450 4.76089 3 ft 9 kts 86°
2026-05-04 04:56 52.31457 4.76289 3 ft 21 kts 86°
2026-05-04 04:56 52.31466 4.76522 3 ft 21 kts 86°
2026-05-04 04:56 52.31473 4.76755 3 ft 21 kts 86°
2026-05-04 04:56 52.31481 4.76988 3 ft 21 kts 87°
2026-05-04 04:57 52.31524 4.77196 3 ft 21 kts 30°
2026-05-04 04:57 52.31608 4.77380 3 ft 21 kts 57°
2026-05-04 04:57 52.31686 4.77575 3 ft 21 kts 57°
2026-05-04 04:57 52.31801 4.77692 2 ft 21 kts
2026-05-04 04:58 52.31944 4.77706 3 ft 21 kts
2026-05-04 04:58 52.32046 4.77780 3 ft 15 kts 37°
2026-05-04 04:58 52.32115 4.77908 3 ft 15 kts 70°
2026-05-04 04:58 52.32085 4.78014 3 ft 9 kts 163°
2026-05-04 04:59 52.32027 4.78005 3 ft 0 kts 181°
2026-05-04 04:59 52.31957 4.78003 3 ft 35 kts 181°
2026-05-04 04:59 52.31463 4.77955 5 ft 106 kts 183°
2026-05-04 05:00 52.30508 4.77868 6 ft 167 kts 182°
2026-05-04 05:00 52.29283 4.77758 481 ft 176 kts 182°
2026-05-04 05:00 52.26781 4.78333 1420 ft 200 kts 165°
2026-05-04 05:01 52.25394 4.78992 1596 ft 216 kts 166°
2026-05-04 05:01 52.23896 4.79688 1784 ft 233 kts 166°
2026-05-04 05:01 52.22277 4.80111 1944 ft 242 kts 190°
2026-05-04 05:01 52.20758 4.78987 2359 ft 246 kts 223°
2026-05-04 05:02 52.19850 4.76617 2846 ft 252 kts 255°
2026-05-04 05:02 52.19850 4.73756 3400 ft 256 kts 278°
2026-05-04 05:02 52.20245 4.70888 3847 ft 261 kts 279°
2026-05-04 05:02 52.20653 4.68005 4458 ft 260 kts 279°
2026-05-04 05:03 52.21053 4.65135 5057 ft 260 kts 279°
2026-05-04 05:03 52.21450 4.62233 5565 ft 264 kts 279°
2026-05-04 05:04 52.22003 4.53476 6870 ft 259 kts 248°
2026-05-04 05:04 52.21393 4.50675 7268 ft 263 kts 248°
2026-05-04 05:04 52.20792 4.47855 7794 ft 263 kts 248°
2026-05-04 05:06 52.16427 4.27325 10428 ft 306 kts 248°
2026-05-04 05:06 52.15711 4.23968 10558 ft 322 kts 248°
2026-05-04 05:06 52.14966 4.20476 10686 ft 338 kts 248°
2026-05-04 05:07 52.14180 4.16789 10956 ft 349 kts 248°
2026-05-04 05:07 52.13374 4.13011 11372 ft 357 kts 248°
2026-05-04 05:07 52.12556 4.09181 11920 ft 360 kts 248°
2026-05-04 05:09 52.05757 3.77674 15916 ft 380 kts 247°
2026-05-04 05:09 52.04869 3.73606 16337 ft 383 kts 247°
2026-05-04 05:10 52.03973 3.69510 16758 ft 386 kts 247°
2026-05-04 05:10 52.03071 3.65391 17175 ft 389 kts 247°
2026-05-04 05:10 52.02163 3.61246 17599 ft 391 kts 247°
2026-05-04 05:10 52.01246 3.57070 17996 ft 394 kts 247°
2026-05-04 05:11 52.00322 3.52878 18372 ft 396 kts 247°
2026-05-04 05:11 51.99297 3.48735 18726 ft 394 kts 239°
2026-05-04 05:11 51.97771 3.45070 19072 ft 393 kts 230°
2026-05-04 05:11 51.96094 3.41568 19414 ft 394 kts 230°
2026-05-04 05:12 51.94417 3.38031 19737 ft 396 kts 231°
2026-05-04 05:12 51.92759 3.34463 20088 ft 398 kts 231°
2026-05-04 05:12 51.91107 3.30847 20440 ft 399 kts 232°
2026-05-04 05:12 51.89459 3.27218 20764 ft 401 kts 232°
2026-05-04 05:13 51.87802 3.23573 21097 ft 402 kts 232°
2026-05-04 05:13 51.86297 3.19750 21325 ft 407 kts 241°
2026-05-04 05:13 51.85206 3.15494 21604 ft 412 kts 249°
2026-05-04 05:13 51.84451 3.11001 21936 ft 417 kts 256°
2026-05-04 05:14 51.84095 3.06322 22258 ft 420 kts 261°
2026-05-04 05:14 51.83823 3.01606 22549 ft 423 kts 261°
2026-05-04 05:14 51.83551 2.96862 22844 ft 425 kts 261°
2026-05-04 05:14 51.83265 2.92094 23141 ft 426 kts 260°
2026-05-04 05:15 51.82965 2.87313 23439 ft 428 kts 260°
2026-05-04 05:15 51.82654 2.82521 23716 ft 429 kts 260°
2026-05-04 05:15 51.82337 2.77716 23991 ft 430 kts 259°
2026-05-04 05:15 51.82016 2.72897 24256 ft 431 kts 259°
2026-05-04 05:16 51.81693 2.68078 24520 ft 432 kts 259°
2026-05-04 05:16 51.81370 2.63317 24791 ft 433 kts 259°
2026-05-04 05:16 51.81033 2.58417 25067 ft 433 kts 259°
2026-05-04 05:16 51.80698 2.53575 25330 ft 434 kts 259°
2026-05-04 05:17 51.80360 2.48718 25578 ft 435 kts 259°
2026-05-04 05:17 51.80020 2.43864 25839 ft 436 kts 258°
2026-05-04 05:17 51.79678 2.38985 26097 ft 437 kts 258°
2026-05-04 05:17 51.79334 2.34112 26311 ft 438 kts 258°
2026-05-04 05:18 51.78988 2.29218 26548 ft 439 kts 258°
2026-05-04 05:18 51.78637 2.24312 26781 ft 440 kts 258°
2026-05-04 05:18 51.78301 2.19458 27009 ft 442 kts 259°
2026-05-04 05:18 51.78001 2.14513 27221 ft 443 kts 259°
2026-05-04 05:19 51.77717 2.09542 27417 ft 445 kts 259°
2026-05-04 05:19 51.77435 2.04558 27638 ft 446 kts 259°
2026-05-04 05:19 51.77147 1.99564 27851 ft 447 kts 259°
2026-05-04 05:19 51.76852 1.94565 28055 ft 448 kts 259°
2026-05-04 05:20 51.76552 1.89553 28237 ft 449 kts 258°
2026-05-04 05:20 51.76246 1.84522 28431 ft 450 kts 258°
2026-05-04 05:20 51.75938 1.79498 28615 ft 451 kts 258°
2026-05-04 05:20 51.75626 1.74441 28786 ft 452 kts 258°
2026-05-04 05:21 51.75313 1.69387 28950 ft 453 kts 258°
2026-05-04 05:21 51.74996 1.64315 29123 ft 454 kts 258°
2026-05-04 05:21 51.74676 1.59252 29282 ft 455 kts 258°
2026-05-04 05:21 51.74348 1.54162 29431 ft 456 kts 258°
2026-05-04 05:22 51.74017 1.49076 29574 ft 456 kts 257°
2026-05-04 05:22 51.73684 1.43981 29712 ft 457 kts 257°
2026-05-04 05:22 51.73348 1.38872 29851 ft 458 kts 257°
2026-05-04 05:22 51.73011 1.33771 30005 ft 458 kts 257°
2026-05-04 05:23 51.72672 1.28666 30167 ft 457 kts 257°
2026-05-04 05:23 51.72333 1.23578 30333 ft 457 kts 257°
2026-05-04 05:23 51.71991 1.18487 30483 ft 456 kts 257°
2026-05-04 05:23 51.71648 1.13402 30608 ft 456 kts 257°
2026-05-04 05:24 51.71301 1.08311 30746 ft 456 kts 257°
2026-05-04 05:24 51.70959 1.03232 30892 ft 456 kts 257°
2026-05-04 05:24 51.70618 0.98144 31038 ft 456 kts 257°
2026-05-04 05:24 51.70275 0.93073 31147 ft 456 kts 257°
2026-05-04 05:25 51.69920 0.87974 31262 ft 456 kts 257°
2026-05-04 05:25 51.69570 0.83011 31404 ft 456 kts 257°
2026-05-04 05:25 51.69221 0.77927 31525 ft 456 kts 257°
2026-05-04 05:25 51.68851 0.72844 31644 ft 456 kts 257°
2026-05-04 05:26 51.68467 0.67781 31762 ft 456 kts 257°
2026-05-04 05:26 51.68094 0.62682 31866 ft 457 kts 257°
2026-05-04 05:26 51.67377 0.52486 31964 ft 459 kts 258°
2026-05-04 05:28 51.64307 0.11779 31974 ft 457 kts 255°
2026-05-04 05:29 51.63179 0.01725 31973 ft 457 kts 254°
2026-05-04 05:29 51.62264 -0.06716 31990 ft 459 kts 259°
2026-05-04 05:31 51.63581 -0.42919 31961 ft 466 kts 272°
2026-05-04 05:31 51.63895 -0.48109 31977 ft 466 kts 272°
2026-05-04 05:32 51.64508 -0.58500 31968 ft 467 kts 272°
2026-05-04 05:33 51.65406 -0.74133 31968 ft 468 kts 272°
2026-05-04 05:33 51.65992 -0.84516 31969 ft 470 kts 272°
2026-05-04 05:34 51.66576 -0.95021 31970 ft 471 kts 272°
2026-05-04 05:34 51.67151 -1.05537 31973 ft 472 kts 272°
2026-05-04 05:35 51.67719 -1.16108 31968 ft 474 kts 272°
2026-05-04 05:35 51.68279 -1.26696 31968 ft 475 kts 272°
2026-05-04 05:36 51.68830 -1.37309 31970 ft 476 kts 272°
2026-05-04 05:36 51.69373 -1.47953 31969 ft 477 kts 272°
2026-05-04 05:37 51.69908 -1.58607 31968 ft 478 kts 272°
2026-05-04 05:37 51.70435 -1.69287 31965 ft 478 kts 273°
2026-05-04 05:38 51.71547 -1.85316 31965 ft 480 kts 275°
2026-05-04 05:38 51.72361 -1.96021 31966 ft 481 kts 275°
2026-05-04 05:39 51.73513 -2.12120 31975 ft 482 kts 275°
2026-05-04 05:40 51.74623 -2.28285 31981 ft 483 kts 275°
2026-05-04 05:40 51.75352 -2.39072 31979 ft 484 kts 275°
2026-05-04 05:41 51.76073 -2.49876 31994 ft 485 kts 275°
2026-05-04 05:41 51.76786 -2.60708 32007 ft 485 kts 275°
2026-05-04 05:42 51.77489 -2.71551 32016 ft 486 kts 275°
2026-05-04 05:42 51.78180 -2.82349 32024 ft 487 kts 275°
2026-05-04 05:43 51.78865 -2.93232 32018 ft 487 kts 275°
2026-05-04 05:45 51.81516 -3.36949 31992 ft 490 kts 275°
2026-05-04 05:47 51.85946 -3.80494 31980 ft 492 kts 282°
2026-05-04 05:47 51.87333 -3.91350 31981 ft 493 kts 282°
2026-05-04 05:48 51.88461 -4.02284 31972 ft 493 kts 275°
2026-05-04 05:48 51.88887 -4.13365 31974 ft 493 kts 273°
2026-05-04 05:49 51.89266 -4.24461 31974 ft 494 kts 274°
2026-05-04 05:49 51.89668 -4.35566 31983 ft 495 kts 274°
2026-05-04 05:51 51.91279 -4.80212 31980 ft 498 kts 274°
2026-05-04 05:52 51.91656 -4.91420 31971 ft 498 kts 274°
2026-05-04 05:52 51.92022 -5.02635 31976 ft 499 kts 274°
2026-05-04 05:54 51.93385 -5.47684 31977 ft 502 kts 274°
2026-05-04 05:55 51.93698 -5.58911 31987 ft 502 kts 274°
2026-05-04 05:55 51.94003 -5.70226 31988 ft 503 kts 274°
2026-05-04 05:56 51.94297 -5.81571 31986 ft 504 kts 274°
2026-05-04 05:56 51.94581 -5.92931 31987 ft 505 kts 274°
2026-05-04 05:57 51.94854 -6.04315 31987 ft 506 kts 274°
2026-05-04 05:57 51.95118 -6.15716 31995 ft 507 kts 274°
2026-05-04 05:58 51.95386 -6.27152 31992 ft 508 kts 275°
2026-05-04 05:58 51.95835 -6.38580 31991 ft 509 kts 277°
2026-05-04 05:59 51.96351 -6.50034 31995 ft 510 kts 277°
2026-05-04 05:59 51.96839 -6.61532 31999 ft 512 kts 277°
2026-05-04 06:00 51.97293 -6.73064 31999 ft 513 kts 276°
2026-05-04 06:00 51.97729 -6.84633 32007 ft 514 kts 276°
2026-05-04 06:01 51.98154 -6.96228 32009 ft 515 kts 276°
2026-05-04 06:03 51.99755 -7.42757 32011 ft 517 kts 276°
2026-05-04 06:05 52.01339 -7.95223 32016 ft 518 kts 276°
2026-05-04 06:06 52.01660 -8.06903 32017 ft 518 kts 276°
2026-05-04 06:06 52.01970 -8.18587 32017 ft 518 kts 276°
2026-05-04 06:07 52.02267 -8.30283 32033 ft 519 kts 276°
2026-05-04 06:07 52.02553 -8.41910 32028 ft 519 kts 276°
2026-05-04 06:08 52.02827 -8.53623 32009 ft 519 kts 276°
2026-05-04 06:08 52.03091 -8.65343 32026 ft 519 kts 276°
2026-05-04 06:09 52.03344 -8.77074 32027 ft 520 kts 276°
2026-05-04 06:11 52.04237 -9.24033 32030 ft 521 kts 276°
2026-05-04 06:13 52.04917 -9.69025 32046 ft 519 kts 276°
2026-05-04 06:14 52.05390 -10.10090 32044 ft 519 kts 275°
2026-05-04 06:15 52.05497 -10.21825 32053 ft 518 kts 275°
2026-05-04 06:15 52.05593 -10.33446 32057 ft 518 kts 275°
2026-05-04 06:16 52.05678 -10.45145 32058 ft 518 kts 275°
2026-05-04 06:16 52.05751 -10.56830 32064 ft 517 kts 275°
2026-05-04 06:17 52.05813 -10.68511 32063 ft 517 kts 275°
2026-05-04 06:17 52.05863 -10.80180 32071 ft 516 kts 275°
2026-05-04 06:18 52.05902 -10.91845 32075 ft 516 kts 275°
2026-05-04 06:20 52.05942 -11.38421 32095 ft 515 kts 274°
2026-05-04 06:21 52.05873 -11.67462 32093 ft 514 kts 274°
2026-05-04 06:22 52.05826 -11.79070 32101 ft 513 kts 274°
2026-05-04 06:25 52.05181 -12.59882 32131 ft 510 kts 273°
2026-05-04 06:26 52.05044 -12.71394 32138 ft 509 kts 272°
2026-05-04 06:26 52.04896 -12.82893 32140 ft 509 kts 272°
2026-05-04 06:27 52.04477 -13.11601 32147 ft 508 kts 272°
2026-05-04 06:28 52.04291 -13.23071 32151 ft 507 kts 272°
2026-05-04 06:28 52.04093 -13.34525 32156 ft 507 kts 272°
2026-05-04 06:29 52.03885 -13.45958 32154 ft 506 kts 272°
2026-05-04 06:29 52.03667 -13.57319 32158 ft 506 kts 272°
2026-05-04 06:30 52.03437 -13.68727 32161 ft 505 kts 271°
2026-05-04 06:30 52.03197 -13.80121 32166 ft 505 kts 271°
2026-05-04 06:31 52.02945 -13.91507 32169 ft 504 kts 271°
2026-05-04 06:31 52.02683 -14.02885 32174 ft 503 kts 271°
2026-05-04 06:33 52.01532 -14.48149 32187 ft 502 kts 270°
2026-05-04 06:34 52.01217 -14.59456 32195 ft 501 kts 270°
2026-05-04 06:34 52.00892 -14.70754 32192 ft 501 kts 270°
2026-05-04 06:36 51.94952 -15.14306 32204 ft 508 kts 240°
2026-05-04 06:37 51.91271 -15.24098 32203 ft 509 kts 240°
2026-05-04 06:37 51.87607 -15.33914 32206 ft 509 kts 240°
2026-05-04 06:38 51.83975 -15.43744 32207 ft 509 kts 240°
2026-05-04 06:40 51.69435 -15.82916 32218 ft 509 kts 240°
2026-05-04 06:40 51.65775 -15.92674 32218 ft 508 kts 240°
2026-05-04 06:41 51.62110 -16.02407 32218 ft 508 kts 240°
2026-05-04 06:41 51.58442 -16.12114 32218 ft 507 kts 240°
2026-05-04 06:42 51.54770 -16.21793 32222 ft 507 kts 240°
2026-05-04 06:44 51.40040 -16.60258 32232 ft 505 kts 239°
2026-05-04 06:44 51.36343 -16.69821 32235 ft 504 kts 239°
2026-05-04 06:45 51.32647 -16.79349 32237 ft 504 kts 239°
2026-05-04 06:45 51.28943 -16.88858 32235 ft 504 kts 239°
2026-05-04 06:46 51.25236 -16.98343 32238 ft 503 kts 239°
2026-05-04 06:46 51.21546 -17.07749 32242 ft 503 kts 239°
2026-05-04 06:48 51.06650 -17.45377 32248 ft 502 kts 238°
2026-05-04 06:50 50.91668 -17.82677 32250 ft 500 kts 238°
2026-05-04 06:51 50.87914 -17.91941 32251 ft 500 kts 238°
2026-05-04 06:51 50.84155 -18.01183 32257 ft 499 kts 238°
2026-05-04 06:52 50.80392 -18.10403 32261 ft 499 kts 238°
2026-05-04 06:52 50.76626 -18.19597 32259 ft 498 kts 238°
2026-05-04 06:53 50.72858 -18.28764 32261 ft 497 kts 238°
2026-05-04 06:53 50.69084 -18.37913 32264 ft 497 kts 237°
2026-05-04 06:54 50.65330 -18.46982 32262 ft 497 kts 237°
2026-05-04 06:54 50.61548 -18.56087 32266 ft 496 kts 237°
2026-05-04 06:55 50.57765 -18.65162 32269 ft 496 kts 237°
2026-05-04 06:55 50.53979 -18.74214 32274 ft 495 kts 237°
2026-05-04 06:57 50.38794 -19.10208 32276 ft 494 kts 237°
2026-05-04 06:58 50.35012 -19.19096 32278 ft 493 kts 237°
2026-05-04 06:58 50.31198 -19.28028 32282 ft 493 kts 237°
2026-05-04 06:59 50.27383 -19.36934 32282 ft 493 kts 237°
2026-05-04 06:59 50.23560 -19.45828 32285 ft 493 kts 237°
2026-05-04 07:01 50.08217 -19.81225 32293 ft 492 kts 236°
2026-05-04 07:02 50.04372 -19.90027 32287 ft 492 kts 236°
2026-05-04 07:02 50.01174 -19.97325 32289 ft 491 kts 236°
2026-05-04 07:03 49.97375 -20.06147 32305 ft 491 kts 238°
2026-05-04 07:03 49.93696 -20.15064 32304 ft 490 kts 238°
2026-05-04 07:04 49.90024 -20.23978 32292 ft 490 kts 238°
2026-05-04 07:04 49.86332 -20.32855 32294 ft 490 kts 238°
2026-05-04 07:05 49.82627 -20.41702 32293 ft 489 kts 238°
2026-05-04 07:05 49.78909 -20.50539 32297 ft 489 kts 238°
2026-05-04 07:06 49.73327 -20.63757 32313 ft 489 kts 238°
2026-05-04 07:07 49.69597 -20.72554 32309 ft 490 kts 238°
2026-05-04 07:09 49.54607 -21.07618 32317 ft 491 kts 238°
2026-05-04 07:09 49.50831 -21.16380 32317 ft 491 kts 238°
2026-05-04 07:10 49.47047 -21.25129 32315 ft 491 kts 238°
2026-05-04 07:12 49.31848 -21.59986 32325 ft 491 kts 238°
2026-05-04 07:12 49.28033 -21.68665 32330 ft 491 kts 238°
2026-05-04 07:13 49.24208 -21.77339 32334 ft 491 kts 238°
2026-05-04 07:13 49.20377 -21.85996 32331 ft 492 kts 237°
2026-05-04 07:14 49.10766 -22.07595 32333 ft 492 kts 237°
2026-05-04 07:15 49.06910 -22.16211 32334 ft 492 kts 237°
2026-05-04 07:15 49.03074 -22.24757 32332 ft 492 kts 237°
2026-05-04 07:16 48.99207 -22.33344 32335 ft 491 kts 237°
2026-05-04 07:16 48.95335 -22.41913 32336 ft 491 kts 237°
2026-05-04 07:17 48.91460 -22.50463 32339 ft 491 kts 237°
2026-05-04 07:17 48.87581 -22.58993 32338 ft 490 kts 237°
2026-05-04 07:18 48.83699 -22.67505 32339 ft 490 kts 237°
2026-05-04 07:18 48.79816 -22.75991 32337 ft 490 kts 237°
2026-05-04 07:19 48.75924 -22.84469 32341 ft 489 kts 237°
2026-05-04 07:19 48.72032 -22.92921 32342 ft 489 kts 237°
2026-05-04 07:20 48.68138 -23.01352 32341 ft 489 kts 237°
2026-05-04 07:20 48.64237 -23.09771 32344 ft 488 kts 237°
2026-05-04 07:22 48.48586 -23.43286 32347 ft 488 kts 237°